Theta_e
337 337 339 339 338 338 336 335 335 333 332 331 333 334 337 336 336 335 334 334 333 334 335 330 328 332 331 331 332 331 330 329 329 329 329 329 329 333 336 335 335 336 335 335 336 336 335 334 332 333 332 332 333 332 331 329 328 330 331 330 329 329 329 329 328 328 329 328 329 329 329 330 330 330 330 330 330 330 330 330 329 329 329 329 329
337 339 339 338 339 339 337 337 336 334 333 330 332 336 334 333 335 336 335 334 333 333 333 331 329 332 331 331 331 331 330 329 329 329 329 329 329 333 336 337 336 336 338 337 337 337 335 334 333 334 331 331 331 331 330 328 329 330 330 330 329 329 329 330 330 329 329 329 329 329 329 329 329 330 330 330 331 331 331 330 330 330 330 329 329
337 336 338 338 337 337 337 337 336 337 333 332 332 336 336 334 334 334 335 336 335 335 333 331 328 330 332 331 332 332 331 330 329 329 329 329 330 332 335 336 335 336 337 338 337 336 334 331 331 331 333 333 331 330 329 329 329 328 328 328 328 329 329 329 329 329 329 329 329 328 328 329 331 331 331 331 331 331 330 331 330 330 329 329 329
337 336 337 337 336 336 336 336 337 338 338 333 331 333 335 335 335 336 336 336 335 333 334 331 327 327 329 332 332 332 333 331 331 330 329 329 330 330 331 334 337 336 337 339 338 336 333 333 332 331 333 332 331 330 329 329 329 328 329 329 328 328 328 328 328 327 327 327 327 327 327 328 330 331 331 330 330 331 331 331 331 330 330 330 330
339 338 340 337 336 336 336 336 337 338 338 338 337 334 335 334 334 336 338 335 334 333 335 331 327 329 329 331 332 333 333 332 331 329 328 328 328 328 330 332 333 338 338 336 340 335 333 334 333 333 333 332 331 330 329 329 327 328 328 327 327 328 328 328 329 328 328 328 328 328 328 329 330 330 329 329 330 330 330 330 330 330 330 330 330
340 339 340 337 337 336 335 335 335 338 338 338 337 337 334 333 334 335 340 336 333 333 332 331 330 331 331 332 331 332 333 332 332 330 328 328 328 328 330 330 330 330 332 335 337 336 337 335 333 331 333 330 329 328 329 329 328 328 326 328 329 329 329 329 328 328 329 329 329 329 329 329 329 329 329 329 330 330 330 330 330 330 330 330 330
341 339 338 337 336 336 336 336 336 338 338 338 337 337 336 333 332 331 333 333 332 334 333 331 330 329 331 332 332 332 333 332 333 331 329 328 328 328 330 330 329 329 331 329 335 335 336 336 333 330 329 330 329 329 329 328 328 327 327 327 329 329 328 328 328 329 329 328 329 329 329 329 329 329 329 329 329 330 330 330 329 329 330 331 331
339 340 338 338 336 335 336 337 338 337 336 336 336 335 335 334 333 332 330 329 332 331 332 331 331 330 331 331 332 333 332 331 331 332 332 330 329 329 329 329 328 328 333 327 327 332 336 336 335 333 330 330 329 330 330 329 328 328 329 329 329 328 328 328 328 329 329 329 329 329 329 330 330 331 330 330 329 329 329 329 329 330 331 331 331
340 339 338 336 335 335 336 337 337 335 335 336 335 335 334 334 332 332 332 331 331 331 330 329 330 331 332 332 332 332 331 331 331 332 333 331 331 331 330 329 330 337 329 327 328 329 335 336 331 333 333 330 330 330 330 330 329 330 330 330 330 329 328 328 328 329 329 329 330 330 331 331 330 330 330 329 329 330 330 329 329 330 330 330 331
337 338 336 337 336 335 335 337 337 335 334 335 334 336 334 333 330 333 332 330 328 328 327 329 331 329 329 332 332 333 332 333 334 335 331 331 332 332 332 332 332 331 329 328 328 328 329 332 331 331 332 333 332 329 330 331 330 329 330 330 329 330 329 329 329 329 329 330 331 331 331 330 330 330 330 329 329 330 329 329 329 330 330 330 330
337 337 337 336 335 334 334 335 338 336 334 333 333 334 333 332 330 332 332 331 328 328 328 329 330 330 332 333 335 334 334 334 333 333 330 330 332 334 334 333 333 332 331 330 327 327 326 326 325 324 327 334 332 330 331 331 330 330 329 329 329 328 328 329 330 330 330 330 330 331 331 330 330 330 330 330 330 330 329 329 330 330 330 330 330
336 336 336 336 333 333 333 334 334 334 333 331 332 332 331 331 332 331 330 331 331 329 329 327 326 332 332 331 331 333 333 332 332 332 332 330 332 333 332 332 332 332 331 331 328 327 325 325 328 327 328 332 333 333 332 331 332 330 331 330 329 329 329 329 331 331 330 330 330 330 330 330 329 330 330 331 331 331 331 331 331 330 330 330 330
336 336 335 336 334 332 333 333 333 332 332 332 333 332 332 333 331 330 329 329 329 331 328 327 327 327 329 328 328 330 333 332 330 331 331 332 331 331 331 332 331 331 331 331 329 327 326 325 327 326 327 327 331 334 334 333 331 331 331 331 330 330 329 329 331 332 330 329 329 330 330 329 329 330 331 331 331 330 328 328 328 329 329 330 330
335 333 334 333 332 331 332 333 333 332 333 334 333 334 333 332 331 329 331 329 328 331 329 327 324 323 323 322 323 325 330 329 330 331 330 332 331 330 331 331 331 331 331 331 331 327 326 325 326 327 326 328 328 329 332 331 331 332 331 331 331 330 330 331 332 332 331 330 331 330 329 330 330 330 331 331 330 330 330 329 329 329 329 330 330
334 334 333 333 333 332 332 333 333 333 332 332 333 333 333 332 331 329 328 329 328 332 329 328 323 324 324 321 316 317 321 323 326 328 329 329 330 330 331 331 331 332 332 330 330 329 327 326 327 328 327 328 329 330 330 332 331 333 332 332 332 332 332 332 332 333 332 331 331 330 329 330 330 331 331 331 331 330 329 329 329 329 330 330 330
335 334 333 333 333 333 332 332 333 333 332 331 331 332 332 332 331 330 329 325 327 326 330 329 328 324 318 319 319 318 312 318 322 324 329 329 329 330 331 331 331 332 331 329 329 329 330 328 329 330 329 328 329 330 329 327 333 335 333 331 332 332 333 332 332 333 333 331 331 330 331 330 331 331 332 331 330 329 329 328 328 328 329 330 329
334 334 334 334 334 334 333 333 333 333 332 331 332 333 333 333 332 330 329 327 325 326 328 330 329 329 324 319 315 314 315 316 322 320 327 328 329 329 331 331 331 331 330 329 329 330 330 331 330 330 331 330 330 330 328 328 330 335 333 332 333 333 333 332 331 334 333 332 331 330 330 331 331 331 331 330 329 328 329 328 327 328 329 330 328
335 335 335 336 334 333 333 332 333 333 333 332 333 334 334 333 332 331 329 330 328 326 325 328 330 330 329 326 323 317 317 320 320 314 323 326 327 330 330 329 329 329 329 329 329 329 330 331 331 330 330 329 330 331 329 328 331 331 330 331 332 333 332 332 331 333 334 333 333 331 331 331 331 331 331 330 330 329 328 328 327 327 328 328 327
335 335 335 335 334 333 333 332 334 334 335 334 333 333 334 334 333 331 330 330 329 325 325 326 328 329 330 329 329 329 326 322 316 318 317 322 325 325 326 328 327 328 329 329 329 329 329 331 332 332 331 330 330 330 331 330 332 331 333 333 332 329 328 329 332 334 334 334 335 333 332 333 332 331 332 331 330 329 328 326 326 326 325 325 326
336 336 335 334 334 333 332 332 333 335 335 334 334 334 334 334 334 332 332 330 329 327 326 327 324 325 329 328 328 329 329 327 325 321 318 317 319 325 326 326 325 326 328 329 330 329 328 330 331 332 331 331 331 330 332 331 330 330 331 329 329 329 329 328 329 327 332 335 336 334 333 333 333 332 331 331 329 327 326 326 326 325 325 325 324
334 334 333 335 335 334 333 331 332 333 335 334 334 335 334 332 332 331 331 330 329 329 328 327 327 326 328 327 327 326 326 325 326 325 318 316 316 320 320 322 325 326 327 329 329 329 329 330 331 332 330 330 330 330 331 331 330 330 331 326 328 329 329 328 324 321 323 333 334 335 334 333 334 333 331 330 328 327 326 326 325 325 325 325 324
332 332 332 333 333 334 332 331 331 332 335 335 335 335 334 333 332 331 331 330 330 330 328 328 329 328 330 329 327 326 324 323 324 323 322 321 317 318 319 321 319 323 327 327 329 329 330 329 330 331 331 329 330 329 330 331 331 331 329 326 328 328 329 329 320 321 323 325 331 332 333 334 334 334 331 329 329 327 326 325 326 326 325 324 324
329 331 332 331 332 334 333 332 331 333 334 334 333 333 333 332 332 332 331 330 330 329 328 329 329 329 329 328 327 326 324 323 323 323 321 318 317 317 320 322 321 320 325 329 329 330 331 330 329 331 330 329 330 329 329 330 331 330 327 324 327 328 329 324 317 318 320 327 328 333 334 334 334 333 330 329 328 327 326 327 327 326 325 324 324
329 329 329 331 331 330 331 331 331 332 331 331 333 333 333 334 333 331 330 330 330 330 330 329 329 330 330 330 329 328 327 326 326 325 323 320 320 318 319 322 323 323 326 327 328 329 330 330 330 330 330 329 330 330 330 330 330 328 326 325 326 327 328 325 319 317 314 320 325 330 334 334 333 332 330 329 328 327 327 327 327 326 325 325 326
327 328 329 329 330 330 329 329 330 331 332 332 334 333 331 331 332 330 329 329 329 330 330 331 331 330 330 331 331 329 328 329 327 325 325 324 322 319 322 324 320 321 325 327 324 327 329 329 330 330 330 329 331 331 330 328 326 326 326 325 324 324 325 328 324 318 316 317 321 328 332 333 333 331 330 329 328 326 326 326 324 321 322 322 324
327 327 329 330 330 330 329 329 331 331 330 331 333 333 331 331 331 331 329 329 330 330 331 331 331 330 331 330 330 329 329 330 327 326 324 322 321 320 318 320 321 321 323 325 326 323 325 327 329 330 329 329 330 329 327 327 325 324 324 324 323 321 321 324 326 320 318 317 317 324 325 328 331 330 330 328 326 324 323 318 316 318 315 314 318
327 328 328 329 330 330 328 328 330 330 332 332 332 332 332 329 330 331 331 330 330 331 330 330 329 330 330 329 329 329 329 329 328 327 326 324 323 321 319 316 316 318 318 323 323 323 322 324 329 327 329 328 329 327 327 326 325 324 323 324 323 319 319 322 325 325 321 318 316 317 318 322 322 322 322 322 319 316 316 319 318 314 315 315 319
328 328 327 329 329 329 329 329 330 329 330 331 331 331 330 329 330 331 330 331 329 328 329 329 329 329 330 331 329 328 329 329 329 328 328 327 325 323 322 320 315 313 316 317 320 321 324 322 325 327 328 328 329 327 326 325 325 322 323 323 322 321 317 318 323 326 324 321 318 316 314 316 316 317 317 317 317 317 319 319 317 315 313 317 322
328 329 328 326 328 327 327 327 329 329 330 330 331 331 330 328 328 329 329 330 330 329 329 328 329 330 330 331 330 329 329 329 329 328 328 327 327 326 325 322 320 316 314 315 317 318 321 324 321 324 327 327 328 327 326 326 324 323 324 323 322 322 318 318 319 321 321 319 319 317 315 316 317 318 320 319 319 320 319 316 316 315 315 320 323
328 329 329 329 327 330 327 327 328 328 328 329 330 331 331 329 329 329 330 330 329 330 331 330 328 329 330 330 330 329 329 329 329 329 328 327 327 326 326 325 323 318 317 315 315 318 319 322 323 322 326 327 328 326 326 325 323 324 325 323 321 321 317 317 316 315 315 316 314 312 312 314 317 319 321 318 319 319 316 314 314 315 316 321 322
327 327 327 327 327 327 326 326 326 327 327 328 328 328 329 327 327 327 328 329 329 329 330 330 330 329 330 329 328 328 329 328 328 329 328 328 327 327 326 326 324 322 319 318 314 317 322 319 322 325 325 326 327 326 325 325 324 325 325 323 323 319 317 317 315 314 314 314 311 313 315 314 314 316 317 318 320 319 317 317 316 316 320 321 318
325 326 327 327 326 326 326 326 326 327 327 326 327 328 328 329 328 327 329 328 329 328 329 329 330 328 328 328 327 327 327 327 327 327 328 328 327 327 327 325 324 323 321 318 317 316 321 321 320 323 326 325 326 324 323 324 324 321 325 324 323 318 319 318 313 313 314 313 312 317 321 317 314 317 318 319 319 319 319 318 319 319 319 316 313
322 322 324 326 327 326 326 326 326 326 326 325 324 325 326 326 327 327 328 328 328 328 328 328 330 329 328 327 327 327 327 326 326 326 327 328 327 327 326 325 323 324 322 319 317 317 318 321 323 323 325 324 323 324 322 322 322 322 322 323 321 319 319 318 316 311 312 311 310 312 313 311 312 319 319 318 319 319 316 314 315 314 314 312 311
319 320 321 322 325 327 326 325 325 325 325 325 326 326 326 326 326 327 327 327 327 327 328 327 328 329 328 326 327 327 328 327 326 326 327 327 328 328 328 326 324 324 325 321 319 319 317 318 321 322 324 324 321 322 320 320 321 321 320 320 321 321 320 318 316 314 310 311 310 310 311 310 310 314 312 310 311 311 311 309 309 308 312 308 305
316 317 318 319 321 323 324 325 325 325 325 325 325 327 327 327 326 327 328 328 326 326 325 326 328 328 327 326 326 327 327 326 326 327 327 327 327 328 326 326 324 324 324 324 320 318 318 318 321 321 322 324 321 319 319 320 321 321 320 319 320 322 322 319 317 317 309 309 308 310 310 309 309 311 309 310 309 308 308 308 307 307 307 306 303
313 314 314 314 318 319 320 322 325 325 325 324 325 327 328 328 325 326 326 325 325 325 325 326 327 327 326 325 326 326 326 325 325 325 326 326 325 326 326 326 325 323 322 322 324 320 317 318 319 321 322 322 320 320 318 317 319 319 320 320 320 320 320 320 319 318 312 308 308 309 310 309 308 308 308 308 308 308 307 306 307 306 305 306 304
311 310 310 311 313 313 316 318 321 322 317 315 317 320 323 326 326 326 326 325 324 324 325 326 329 328 326 325 326 326 326 324 324 324 325 325 327 325 324 323 323 323 323 323 322 322 320 319 318 320 322 322 322 318 317 313 316 318 319 318 317 316 317 319 320 320 313 308 308 309 308 308 307 307 307 307 307 307 306 305 305 305 305 305 304
309 309 308 308 309 309 311 312 317 310 307 307 305 305 306 310 318 326 326 326 325 325 325 326 327 328 327 327 326 326 325 324 324 324 326 326 326 325 324 323 323 324 323 322 322 322 321 320 319 319 321 320 319 317 315 313 313 315 315 315 314 312 312 313 315 318 317 312 312 311 309 307 307 307 307 307 306 305 305 305 305 305 305 304 303
307 306 306 306 306 306 306 308 311 308 305 303 302 300 301 304 307 315 324 324 324 325 327 327 327 327 327 327 327 327 327 326 325 325 325 325 324 323 323 323 324 323 321 321 321 321 320 319 319 320 319 320 320 316 315 313 312 315 313 311 310 310 308 310 308 311 315 314 311 309 310 310 310 309 307 306 305 306 305 304 305 305 304 302 301
306 305 305 305 305 305 304 305 306 308 303 301 300 298 298 300 303 307 315 324 324 325 325 326 326 326 327 327 327 327 328 327 326 325 325 323 323 321 322 323 323 322 320 320 319 320 319 319 318 317 318 317 318 319 317 313 309 310 313 312 308 306 303 308 307 307 311 313 312 312 310 308 308 308 305 306 306 305 305 304 305 305 304 302 300
306 305 304 304 304 303 303 303 304 307 303 300 299 297 296 297 299 303 308 315 324 325 325 326 326 326 326 326 327 327 329 330 322 321 322 321 323 321 321 323 321 321 320 320 319 318 319 318 316 317 317 316 316 316 315 310 308 308 306 310 309 306 303 305 306 308 309 309 310 310 310 310 310 309 309 308 306 305 305 305 306 306 303 300 299
304 304 303 302 302 302 302 301 302 303 302 300 300 297 296 296 296 300 304 310 316 322 323 324 324 326 326 326 327 327 323 321 317 312 311 312 317 323 323 323 322 321 320 320 318 318 318 317 316 316 314 315 314 316 315 312 310 309 306 306 307 303 303 304 304 303 306 306 304 303 305 308 307 305 305 304 305 306 303 304 304 304 301 299 300
303 302 301 301 300 301 301 300 300 301 301 299 295 293 293 294 296 297 300 306 313 319 323 324 324 323 325 325 326 326 323 320 317 307 307 306 305 309 312 316 320 324 321 320 319 318 317 317 317 316 314 315 315 315 316 313 309 307 306 306 307 303 301 300 299 301 303 303 301 299 299 302 302 300 300 301 302 302 302 301 301 301 300 300 300
302 301 300 299 300 300 300 300 300 300 300 299 293 293 293 293 295 296 297 303 311 317 321 323 323 324 324 324 323 324 324 324 323 317 311 306 303 303 304 306 308 309 313 319 319 318 318 316 315 314 314 314 314 313 313 311 308 307 307 306 305 303 301 301 300 300 303 302 300 298 299 301 304 306 305 305 303 302 302 301 300 300 300 300 299
301 300 299 299 298 299 299 298 299 299 299 296 293 293 293 293 293 295 297 303 309 314 319 323 324 324 323 321 321 322 324 323 325 322 321 318 306 303 303 304 306 305 304 307 308 321 320 319 315 313 313 314 312 311 312 312 310 308 307 306 305 304 303 303 302 304 308 304 306 305 304 307 307 303 301 301 301 301 301 300 300 300 300 299 299
300 299 298 298 298 297 298 298 298 298 298 296 293 293 293 292 292 293 299 303 309 313 317 322 323 322 322 320 320 321 323 323 322 323 323 320 316 314 314 317 315 308 302 300 302 306 314 321 318 316 316 315 313 313 315 312 311 309 307 306 305 304 304 304 307 313 314 310 310 310 306 305 304 302 299 300 302 301 301 300 299 299 299 299 298
299 298 298 297 297 297 297 297 297 297 297 294 292 292 292 292 292 295 304 309 313 316 318 321 323 322 322 322 321 321 321 322 322 321 322 321 317 316 317 317 311 309 306 305 306 313 320 319 319 319 319 318 318 318 317 317 314 313 311 308 307 307 309 315 314 313 312 314 315 312 306 307 304 302 301 301 302 301 300 298 299 299 299 298 298
299 299 299 298 297 296 297 296 296 296 296 293 292 292 292 292 293 301 307 311 313 315 319 311 310 309 311 316 322 321 321 322 315 306 313 320 319 318 315 309 306 304 301 298 294 295 305 318 318 320 315 316 312 314 314 317 318 319 317 317 317 316 314 313 310 306 306 307 311 312 309 307 307 302 302 302 300 298 298 299 298 299 299 298 298
298 298 298 297 297 296 296 296 295 295 295 294 292 292 292 292 295 299 304 308 310 311 308 308 307 306 306 306 311 320 321 320 309 300 304 310 319 318 313 309 307 305 302 300 295 294 294 293 293 293 293 293 297 299 300 302 311 317 318 316 315 315 312 309 307 306 304 303 304 312 312 307 306 303 301 300 298 297 298 298 298 298 298 298 298
298 298 297 297 297 296 296 295 296 294 294 295 292 292 292 292 295 298 300 303 305 304 305 305 305 303 304 303 303 302 315 317 303 297 301 312 317 315 311 308 305 303 303 305 305 303 298 297 297 297 297 296 297 296 296 301 303 311 317 314 315 315 312 310 306 303 302 301 300 305 310 307 306 303 299 298 298 299 299 298 298 298 298 297 297
297 297 297 296 296 296 296 296 298 295 295 295 293 292 292 292 294 297 297 299 301 300 300 300 301 301 300 300 300 296 296 298 293 297 300 311 316 313 310 308 305 304 304 307 306 305 306 306 306 306 304 303 306 305 304 298 299 304 314 317 317 315 312 310 305 302 301 300 302 305 305 306 303 302 300 297 297 299 299 298 297 297 296 295 296
Wind_Speed
4 4 2 1 1 0 3 4 4 5 4 6 6 5 5 6 5 6 6 6 6 6 8 5 4 4 3 2 8 7 6 7 7 7 5 5 5 8 13 11 10 9 10 10 10 11 10 9 9 10 9 10 10 10 11 10 10 11 12 11 12 11 12 12 11 12 13 13 13 13 13 14 14 14 14 15 15 15 15 16 16 16 16 16 16
4 4 4 4 2 1 3 2 2 4 5 6 6 4 5 5 5 5 6 6 6 7 6 3 2 4 5 3 6 8 8 7 7 6 6 5 5 5 10 8 8 11 8 10 11 11 11 11 9 9 8 8 9 9 10 9 10 11 11 11 10 11 12 12 12 13 14 14 13 13 13 13 14 14 14 14 14 15 15 16 17 16 16 16 16
4 4 3 3 3 2 3 2 1 3 4 7 6 5 4 5 5 6 6 6 6 5 3 3 3 4 3 5 6 9 8 7 6 6 6 6 5 4 6 9 8 9 9 9 10 10 9 7 8 9 11 10 10 9 10 10 10 11 11 11 10 11 12 12 12 12 12 12 13 13 13 13 14 14 14 14 14 14 15 15 15 16 16 16 16
5 5 5 4 3 5 5 3 1 2 3 6 6 5 5 6 6 6 6 6 7 6 4 2 4 3 2 6 5 7 8 8 7 6 6 6 5 5 5 5 8 9 9 7 9 9 9 10 9 9 11 10 10 10 10 10 11 11 12 11 11 11 12 13 13 13 13 13 13 13 13 13 14 14 14 14 14 15 15 15 15 15 16 16 16
7 7 7 6 6 5 4 2 3 5 4 5 5 2 2 5 7 6 6 5 4 5 4 3 4 3 2 5 5 6 7 8 7 7 6 6 5 5 5 4 4 6 6 7 6 6 8 11 10 10 11 10 9 9 9 10 11 11 12 11 10 11 12 12 13 13 14 14 14 14 13 13 13 13 13 14 14 14 14 15 15 15 15 15 15
5 6 6 7 6 6 6 6 7 6 4 4 3 3 1 3 7 7 6 6 5 5 5 5 4 1 6 5 5 6 6 7 8 7 7 6 6 5 5 5 5 3 3 7 7 6 4 10 10 9 12 9 8 10 10 10 11 10 10 13 12 11 11 12 12 13 14 14 14 14 14 14 13 13 13 13 13 13 13 14 13 13 14 14 14
6 6 6 6 6 5 6 6 6 6 5 4 3 2 2 2 3 10 7 3 6 5 5 5 3 2 5 6 6 5 5 5 6 8 7 7 6 6 5 5 5 4 3 3 5 6 5 9 9 7 8 9 9 9 11 10 11 11 11 12 13 12 12 12 12 13 14 14 13 13 14 14 14 13 13 12 12 13 13 13 13 14 13 14 14
3 5 5 5 5 5 5 5 5 5 3 3 3 4 2 3 2 9 2 6 9 7 4 3 3 3 5 5 6 5 5 6 6 6 7 7 6 6 6 5 5 5 3 4 3 4 6 7 8 8 9 10 9 10 11 11 10 12 11 13 12 12 11 12 13 14 13 14 13 13 13 13 13 13 13 12 12 12 13 12 12 13 13 13 14
3 3 4 4 4 4 4 4 4 5 4 3 4 3 3 4 5 8 8 8 6 7 8 10 5 3 4 4 5 5 6 6 5 6 6 7 6 6 6 5 5 6 5 4 3 3 5 8 10 7 8 10 10 10 10 11 10 12 13 13 14 13 13 12 13 13 13 14 13 13 12 12 13 13 13 12 12 12 12 12 12 13 13 14 15
3 3 4 4 4 4 4 4 5 5 5 4 3 3 4 4 5 3 4 5 5 3 5 6 9 4 3 4 4 5 5 5 5 5 6 6 6 6 6 7 6 5 5 5 4 4 3 7 10 8 9 10 10 10 10 12 12 10 12 14 13 15 14 13 12 12 13 14 13 13 12 11 11 12 12 12 12 12 12 12 12 13 14 15 15
3 3 4 4 4 4 4 3 3 4 4 4 3 3 3 5 4 1 2 5 3 5 8 10 5 2 2 1 5 4 4 5 5 5 5 5 6 5 6 6 6 5 5 5 5 4 4 4 4 3 4 9 11 11 11 12 12 13 10 12 13 13 13 13 13 12 13 13 13 13 12 11 11 11 11 12 12 12 11 11 11 12 13 14 15
4 4 5 5 4 4 4 3 3 4 3 3 4 5 5 4 4 2 2 4 4 4 5 5 2 5 4 3 2 4 4 4 4 3 5 5 6 6 6 5 6 6 5 5 5 4 5 4 4 4 3 6 10 9 11 10 9 12 13 12 12 13 13 13 13 12 12 13 13 13 12 12 11 10 11 11 11 11 11 10 11 11 12 14 15
4 4 5 5 4 3 4 4 4 4 4 4 4 4 4 3 4 3 4 4 6 1 5 7 2 2 2 4 4 4 3 3 3 4 4 5 5 6 5 6 6 6 5 5 6 6 5 5 5 4 5 5 6 9 9 9 10 12 13 13 12 12 13 14 13 13 13 13 12 12 12 11 10 10 10 12 12 12 11 10 10 11 12 14 15
3 3 4 4 3 4 4 4 4 4 4 4 3 4 4 3 3 2 3 6 6 2 2 6 2 1 2 1 3 5 3 2 1 1 3 4 6 6 6 6 7 6 5 5 5 6 6 5 5 5 5 5 4 4 6 7 8 12 13 13 14 13 12 13 14 13 13 12 12 12 10 10 10 11 11 12 13 12 11 10 10 11 12 13 15
3 3 3 3 3 4 4 4 5 4 4 5 4 5 5 5 5 5 3 3 3 2 3 5 4 1 3 2 1 2 2 1 1 1 3 2 5 6 6 7 8 7 6 6 5 6 6 6 6 6 6 6 5 4 5 5 6 11 12 13 15 15 15 14 14 13 13 12 12 11 9 10 10 11 12 13 12 11 10 11 11 11 12 13 15
4 4 4 4 5 5 5 4 5 5 6 6 6 7 5 5 5 5 5 4 5 3 4 5 5 7 2 5 2 4 1 5 5 3 4 3 4 6 6 6 7 6 6 7 6 6 6 6 7 6 7 7 6 5 5 4 7 11 12 11 12 15 16 15 15 14 14 13 12 10 8 10 10 11 12 13 11 10 10 10 11 11 11 14 15
4 4 5 5 5 6 5 5 5 5 5 6 7 7 6 6 6 6 7 7 5 3 3 5 6 6 5 2 1 1 4 3 5 3 3 3 3 5 5 6 7 7 6 7 6 6 6 6 6 5 5 6 6 6 6 5 5 6 9 11 12 13 16 15 16 16 14 14 13 11 9 10 10 10 13 12 12 10 10 11 11 11 13 14 14
5 5 6 6 5 3 3 3 5 5 6 6 6 5 5 6 7 7 8 7 7 6 4 4 7 8 9 5 3 4 3 2 5 4 1 3 3 3 5 5 4 7 5 6 7 6 6 7 5 6 5 6 7 6 6 6 6 6 6 7 12 13 14 15 15 16 16 15 14 13 11 11 11 11 13 14 13 12 11 11 12 12 12 12 12
5 5 5 5 4 5 6 5 6 6 6 6 7 7 7 7 6 7 7 6 6 7 7 6 4 5 6 8 3 2 3 5 5 3 4 2 2 3 3 3 3 5 5 7 7 7 6 6 7 6 6 6 6 6 6 7 8 8 13 10 12 11 12 15 15 15 16 16 16 14 13 13 12 11 13 14 14 13 12 12 12 12 11 10 11
4 4 4 3 3 4 6 7 7 7 6 7 7 6 5 5 7 8 6 7 8 8 8 6 9 7 8 8 6 5 5 3 3 6 5 7 4 1 2 3 1 5 5 5 7 8 8 7 7 7 6 6 6 6 6 7 7 8 9 13 12 12 11 12 15 14 14 16 16 16 14 14 12 12 13 14 14 12 12 12 12 11 11 10 11
4 3 3 3 3 6 4 5 6 6 6 6 7 7 8 7 7 7 8 8 8 8 7 8 8 7 8 8 8 7 6 8 3 2 3 5 4 6 5 3 3 4 5 5 5 7 8 8 7 7 7 7 6 7 6 6 6 7 8 15 14 13 12 11 10 12 12 13 17 16 16 15 14 13 14 14 13 12 13 13 12 12 11 11 11
4 3 3 4 4 5 6 8 7 6 7 8 7 6 6 6 7 8 8 9 8 8 9 8 8 7 8 8 9 7 7 6 3 3 1 2 5 8 7 8 7 7 6 7 7 7 7 7 7 6 7 7 6 7 7 7 6 6 8 15 15 14 13 11 10 9 10 10 13 16 15 15 16 16 15 14 13 13 13 14 14 13 12 12 11
4 4 4 3 4 5 4 3 4 6 6 7 5 5 5 5 5 6 8 9 8 9 8 8 7 7 8 8 9 9 10 8 6 5 4 3 3 4 5 7 8 6 8 8 7 7 7 7 7 6 7 7 6 6 7 7 7 8 12 14 15 15 14 12 11 11 11 10 12 14 15 15 16 18 16 15 14 14 14 15 14 14 13 13 12
4 5 5 4 3 4 4 5 4 5 5 5 5 4 4 5 5 6 6 6 6 7 8 9 10 8 9 8 8 8 7 6 6 7 8 5 7 5 6 5 4 5 4 6 6 6 7 7 8 7 8 7 6 7 7 7 7 12 10 14 14 15 14 12 12 12 11 9 9 12 15 16 17 17 16 15 15 14 15 15 15 15 14 14 13
3 5 5 6 4 3 2 1 4 5 4 4 5 5 6 6 6 5 4 6 6 8 8 10 10 10 9 8 7 7 7 5 6 6 6 6 6 4 3 5 5 4 5 6 6 6 6 7 7 7 8 7 7 6 6 6 5 10 11 11 15 14 14 12 12 13 11 10 10 11 13 16 18 17 16 16 15 15 15 14 13 12 12 13 13
4 4 4 3 6 4 1 1 2 4 3 7 7 7 7 7 6 6 8 8 8 9 10 9 9 9 7 7 7 7 6 6 6 6 6 6 5 6 4 2 1 4 2 6 5 6 3 3 3 5 7 8 7 7 6 6 6 11 12 9 12 13 14 14 13 11 12 11 12 11 11 15 16 16 16 15 14 14 12 10 10 11 11 11 11
5 5 1 2 6 4 3 2 4 5 6 6 7 7 6 6 7 7 7 7 7 7 8 9 9 9 8 8 7 7 7 6 6 6 6 7 7 7 7 7 4 5 5 5 6 9 7 5 5 5 5 6 7 7 7 6 8 12 12 8 7 13 13 14 14 12 13 13 13 13 11 15 13 14 13 13 12 10 12 11 10 9 10 10 10
5 4 4 5 4 5 3 3 5 6 7 6 7 6 7 7 8 7 8 6 7 8 8 9 9 9 9 7 6 7 7 7 7 7 7 6 6 6 7 8 10 7 6 6 7 7 7 6 4 7 6 7 7 7 8 9 7 13 11 7 7 8 13 14 15 15 14 13 14 13 14 13 13 14 12 11 12 13 12 11 10 9 9 9 10
5 4 3 4 4 4 6 5 5 4 5 5 5 6 6 6 7 8 8 6 7 9 9 9 8 8 7 8 8 7 7 7 7 7 7 6 6 6 6 9 9 8 8 7 8 8 8 9 7 8 9 8 8 7 9 7 9 11 7 7 7 7 12 14 14 14 14 14 13 13 13 14 14 13 12 13 13 13 12 12 11 10 9 9 8
5 5 4 5 4 4 4 4 4 5 5 5 5 4 6 6 7 6 6 5 6 6 6 7 7 7 7 7 7 7 6 7 7 7 7 7 7 7 6 5 6 8 9 10 8 7 7 7 7 7 10 9 8 8 8 8 12 12 8 8 8 7 13 14 14 14 14 14 13 14 14 14 14 14 14 14 14 13 12 12 11 10 9 9 10
7 6 6 5 5 5 4 4 4 5 5 5 4 4 5 6 6 6 6 6 6 8 7 7 7 7 8 8 5 5 6 7 6 6 6 7 6 6 6 6 8 11 10 8 7 6 6 9 7 8 10 11 10 9 7 7 11 11 9 8 7 10 14 12 14 14 13 14 14 14 14 14 14 14 14 14 14 13 12 10 11 10 10 11 9
9 9 7 5 4 5 4 4 4 5 5 4 4 6 6 6 5 5 7 8 8 8 7 7 6 6 7 7 6 6 5 5 5 5 6 6 6 6 6 5 7 12 8 8 9 8 7 9 6 9 12 11 11 10 8 7 10 13 9 8 8 11 8 7 12 14 13 14 14 14 14 14 14 14 15 14 13 13 11 11 11 11 11 10 10
10 11 11 10 7 5 5 4 4 4 4 3 3 4 6 6 6 3 4 6 6 6 6 7 7 7 7 8 7 7 5 6 6 6 6 6 5 5 6 7 8 9 8 8 8 6 2 2 8 8 10 12 10 11 11 9 9 7 9 8 9 8 7 7 8 12 14 14 14 14 14 14 14 14 14 14 13 13 13 12 12 11 10 10 10
10 10 12 10 11 10 7 5 5 5 4 4 4 4 6 6 5 5 5 7 7 6 6 7 8 7 7 8 8 8 8 9 6 7 7 6 5 6 6 5 6 9 7 8 7 9 8 3 5 3 8 12 10 10 11 11 10 8 9 7 7 9 8 7 7 8 14 14 14 14 13 14 14 14 14 14 13 13 12 12 12 11 11 10 10
11 10 12 12 11 12 12 9 7 6 4 4 4 6 6 6 5 5 5 3 5 6 7 8 8 8 8 8 9 8 6 6 7 6 5 5 3 4 5 3 4 8 3 4 4 3 8 7 8 8 8 9 10 11 11 11 12 10 9 9 9 8 7 8 8 6 12 13 14 13 13 14 14 14 13 13 13 12 12 12 12 11 11 10 9
12 12 12 13 12 12 12 13 12 8 6 7 7 6 6 4 5 6 6 5 5 6 7 8 8 7 8 8 8 7 7 8 7 6 4 4 3 3 3 4 2 4 4 6 4 2 3 2 3 7 8 10 5 10 10 10 11 9 8 8 8 9 8 7 8 7 10 14 15 14 14 14 13 13 13 13 13 12 12 12 11 11 9 8 7
12 12 12 13 13 13 12 13 14 15 16 17 16 14 12 7 4 4 4 5 6 8 8 7 8 8 9 10 10 8 7 8 7 6 5 5 6 6 6 7 6 4 5 7 7 7 8 8 4 3 4 8 6 9 11 11 9 8 7 9 10 10 9 8 7 8 12 16 15 15 14 13 13 13 13 14 13 13 12 12 11 9 8 7 7
12 12 12 12 11 13 13 13 12 13 12 12 13 12 12 13 12 7 5 6 7 8 9 8 7 8 9 9 8 8 9 9 8 6 6 8 8 9 8 5 5 6 7 7 7 7 9 9 7 6 3 6 6 7 11 11 11 9 7 8 8 8 8 7 7 7 6 8 6 7 9 11 13 14 14 14 14 13 12 11 9 8 8 8 8
13 13 13 13 12 12 13 12 11 12 12 12 13 14 14 13 12 11 7 5 5 6 7 8 7 7 8 6 6 7 9 9 7 8 8 8 7 5 8 10 10 8 8 7 8 9 9 9 8 7 7 7 10 9 9 10 11 11 11 9 8 8 7 10 9 5 5 8 9 12 12 13 13 12 14 14 14 13 11 9 8 8 8 8 8
13 13 12 13 11 11 13 12 12 9 12 14 15 16 13 12 12 11 11 8 8 7 7 5 6 8 9 7 7 7 8 8 8 7 8 8 6 6 6 7 8 9 8 7 7 8 8 8 9 8 7 4 4 5 7 9 9 6 9 10 11 9 7 8 8 8 5 7 8 6 4 4 6 9 9 9 9 9 8 7 9 9 9 9 8
11 13 14 13 13 14 14 13 13 10 10 11 11 13 13 14 11 11 11 11 8 6 6 7 9 10 9 9 8 7 8 11 11 11 10 8 7 8 8 8 9 9 8 8 8 8 7 8 6 5 7 8 9 8 9 9 12 13 8 9 9 9 8 7 6 6 9 10 8 6 7 8 8 7 6 6 6 7 7 9 7 10 10 9 8
11 12 13 14 13 14 14 14 13 10 9 10 21 23 17 12 13 10 10 8 8 5 6 8 8 7 7 7 9 13 13 11 11 12 12 12 12 10 9 10 11 10 10 10 9 8 8 9 9 9 9 11 10 12 12 12 11 10 9 9 10 7 8 9 6 4 7 9 9 8 8 6 6 5 6 6 5 7 6 6 6 7 9 10 9
11 11 11 14 15 13 13 13 13 10 9 14 25 21 20 20 13 10 10 10 8 7 5 5 5 6 7 9 10 11 11 10 9 13 13 12 11 12 12 14 14 13 11 11 10 10 10 9 9 10 10 12 12 11 12 11 11 12 12 10 9 8 9 9 9 3 4 9 10 8 6 6 7 6 6 6 7 6 6 7 10 12 12 11 11
9 9 11 11 11 12 12 13 12 11 9 22 24 23 22 22 19 13 10 9 8 7 5 5 5 6 7 7 6 3 3 6 6 8 10 12 13 13 12 14 15 17 11 9 7 7 8 9 9 11 11 12 13 11 10 10 12 11 11 10 10 11 11 11 9 9 7 9 7 7 6 4 6 6 5 3 5 5 7 10 15 14 14 13 13
7 9 9 10 11 11 12 13 13 11 10 21 25 25 23 22 21 16 9 9 8 8 7 6 5 6 5 4 5 4 5 8 7 7 7 6 4 6 7 7 3 2 3 17 11 9 7 6 7 9 11 11 12 11 11 13 12 12 10 10 10 11 11 12 10 8 5 11 8 6 6 5 5 6 6 2 4 5 8 12 16 16 15 14 13
9 9 9 10 10 11 12 12 11 12 12 21 24 25 24 24 23 17 8 9 7 7 7 6 4 3 4 5 5 6 6 7 6 6 5 4 5 4 3 4 4 3 2 4 3 14 14 8 6 9 8 7 12 10 8 12 15 14 12 13 12 12 12 13 9 8 8 12 11 8 4 3 3 7 6 3 5 6 7 12 15 15 15 14 13
9 9 9 10 10 10 11 11 11 12 12 23 24 25 25 26 25 15 8 8 8 6 6 7 5 4 5 5 7 8 6 5 7 8 7 7 6 5 4 5 4 2 1 3 3 1 6 6 6 3 3 3 6 7 6 5 10 9 12 14 13 11 7 6 7 6 6 4 11 9 6 5 3 6 6 6 5 6 6 9 14 14 13 13 12
7 7 7 8 10 11 11 12 12 13 13 24 25 26 26 26 25 12 11 8 8 7 6 9 8 7 7 4 6 7 6 7 9 14 9 6 7 7 6 5 4 2 3 3 4 6 5 1 2 3 3 2 6 5 6 7 6 6 6 6 8 10 11 10 8 3 5 2 1 8 7 6 4 10 6 4 6 7 5 5 5 9 12 12 12
8 9 9 9 9 10 11 12 13 12 13 21 26 26 26 27 20 12 13 11 12 11 10 8 8 8 7 8 7 6 6 5 8 11 11 11 6 6 7 6 4 5 5 5 10 13 14 15 15 14 10 9 5 3 6 10 10 10 10 11 10 11 12 10 6 6 4 1 4 4 11 10 6 7 8 5 5 6 6 5 4 6 10 11 12
8 8 7 8 8 9 11 12 12 12 13 18 25 25 26 26 20 11 11 11 10 12 11 11 9 9 9 18 15 10 6 3 4 10 11 9 7 8 7 7 7 7 4 2 5 9 14 15 14 15 13 11 14 13 9 4 2 8 12 12 11 11 12 12 9 5 3 3 1 1 11 10 10 9 10 5 6 4 5 5 5 6 8 8 10
9 7 6 7 8 8 10 11 16 15 13 16 23 24 25 25 20 12 12 11 11 12 11 11 10 8 9 10 17 15 11 10 4 13 13 10 7 8 8 8 8 7 3 3 6 8 8 9 9 10 10 10 9 8 10 16 14 9 1 7 11 11 11 10 11 8 6 1 1 1 9 8 11 9 12 8 4 3 3 4 5 5 5 5 5
Wind_Direction
190 185 144 155 189 223 288 247 209 202 208 224 228 234 221 225 230 232 226 240 246 259 252 226 154 166 158 143 112 130 130 128 130 134 135 134 133 143 144 148 152 153 148 145 138 133 134 138 134 130 124 124 119 122 119 124 127 116 115 115 109 109 109 108 107 106 113 114 107 103 102 101 100 99 97 94 91 88 87 88 88 86 84 83 82
172 154 152 185 192 174 235 262 279 240 207 220 232 237 234 243 239 235 241 244 252 253 237 217 170 164 177 125 126 137 136 137 139 141 142 136 139 141 143 135 157 168 162 134 138 142 142 139 132 135 133 128 125 123 128 131 119 117 114 106 111 116 114 111 111 110 108 110 108 105 105 103 103 100 96 96 96 93 90 88 90 90 89 88 86
158 170 160 178 184 181 217 207 234 303 280 233 225 235 247 240 246 245 254 257 258 263 264 198 188 187 174 130 137 134 139 138 141 143 143 143 141 144 144 143 137 143 134 141 146 146 149 135 132 136 132 134 133 132 132 131 128 125 120 122 122 115 114 113 112 112 109 108 111 112 109 108 101 98 98 96 95 96 94 92 91 93 92 89 88
171 180 182 182 195 213 216 187 173 209 293 288 254 227 243 249 244 251 253 254 257 276 290 206 210 195 179 143 145 127 131 142 142 146 145 144 145 153 146 138 142 151 152 165 160 159 150 143 141 144 138 138 138 141 141 132 132 130 126 123 129 127 120 119 117 114 116 116 114 113 113 110 103 103 101 98 95 94 95 91 90 92 90 88 87
175 184 184 182 181 206 215 125 197 196 211 260 282 269 284 270 246 244 245 227 247 269 283 228 221 238 141 148 130 126 129 140 143 144 151 152 152 150 148 145 147 154 163 174 171 151 149 143 146 151 141 142 147 146 142 137 136 133 131 129 128 126 123 123 121 119 118 118 120 118 117 112 109 106 102 97 94 94 91 93 91 88 87 87 84
174 178 176 183 187 190 192 174 213 205 189 207 251 270 123 346 296 247 226 216 222 238 256 267 251 136 146 142 129 140 136 134 143 152 151 156 156 153 148 141 135 152 172 178 152 151 150 151 161 155 150 148 146 145 140 142 139 139 139 139 134 129 129 126 123 123 119 120 119 119 118 115 112 108 105 102 98 92 90 89 88 88 88 88 85
183 178 180 177 179 186 188 198 193 193 193 176 202 227 129 117 317 289 282 352 289 245 230 223 238 129 162 133 136 146 133 136 129 143 152 154 156 157 152 150 152 160 155 144 150 137 152 158 155 156 152 144 145 152 146 150 143 143 141 135 134 132 131 130 131 128 126 125 126 123 120 117 115 113 110 106 103 99 95 93 93 91 88 84 82
201 176 175 172 168 180 189 184 186 185 177 173 178 220 183 119 123 276 254 251 246 271 245 231 224 152 176 134 148 134 129 135 144 127 150 149 157 157 160 156 154 158 152 150 142 153 145 142 146 160 162 154 161 159 156 152 155 141 145 139 135 136 137 141 139 132 130 127 126 125 123 120 117 114 109 107 106 103 99 96 92 90 88 86 85
212 192 166 160 166 172 189 182 179 186 188 189 186 205 213 166 193 230 223 208 234 252 353 324 279 178 174 132 149 131 132 143 145 126 139 148 155 155 159 156 162 164 151 158 148 151 162 158 154 159 154 159 165 168 154 156 161 148 146 147 145 141 143 145 142 138 135 134 133 130 125 121 117 111 109 108 108 105 104 101 92 84 88 94 94
197 178 173 177 171 172 186 178 175 179 190 193 200 186 204 205 216 276 16 337 260 161 239 249 262 71 268 131 115 117 133 118 122 131 138 148 153 151 156 156 159 153 159 161 157 161 169 155 161 170 168 159 162 168 165 160 160 161 155 150 147 147 148 146 143 142 141 138 135 130 126 125 120 118 118 115 112 108 104 102 96 92 97 102 94
195 187 180 183 176 170 178 196 187 184 185 205 201 205 214 190 198 112 176 200 268 270 204 216 230 38 51 22 106 112 102 100 112 126 139 145 150 149 139 150 146 149 156 163 159 156 154 156 164 172 150 149 159 173 172 165 164 161 160 149 152 151 149 147 148 152 145 142 136 133 135 131 127 124 122 122 121 117 111 109 101 92 100 102 99
196 198 190 185 184 180 181 187 177 163 175 206 219 206 210 176 151 150 214 256 255 275 297 250 150 109 115 30 54 101 97 101 110 122 146 151 149 147 150 148 149 155 160 158 163 161 160 166 168 164 157 164 164 172 177 169 169 166 165 161 161 154 153 153 153 153 147 144 140 136 135 132 132 129 120 119 121 118 117 109 105 107 106 103 100
204 196 200 199 192 183 174 178 179 180 183 206 213 216 202 170 140 150 188 222 250 241 52 26 15 77 55 70 14 357 66 80 122 128 153 158 147 152 153 148 159 163 171 162 166 169 171 172 175 169 166 171 177 179 177 167 174 177 168 166 167 161 158 157 155 153 152 148 144 142 140 136 135 123 118 116 114 108 107 112 116 113 111 109 102
214 202 202 196 198 192 183 186 186 196 204 194 203 187 192 187 147 152 198 204 224 136 180 103 296 318 148 113 18 333 347 23 64 174 161 171 162 156 162 161 166 170 166 169 166 172 176 181 181 181 173 164 167 171 173 170 181 184 174 171 170 169 166 165 158 157 155 155 153 150 145 142 145 132 126 118 110 109 112 121 127 124 116 112 107
213 211 203 203 211 210 206 200 200 193 199 205 201 197 186 186 182 174 176 211 219 153 168 151 135 358 346 43 253 242 295 343 311 253 203 194 158 162 171 169 173 169 167 169 171 172 178 187 190 182 176 166 165 166 159 169 181 191 178 178 174 172 173 175 163 162 160 159 157 155 154 149 147 136 133 123 115 114 116 124 131 126 120 119 111
203 207 213 209 204 216 218 205 207 195 194 200 201 208 196 189 181 187 165 190 202 192 164 153 155 145 173 225 189 167 221 237 208 245 183 203 155 170 170 176 170 163 156 176 183 176 182 189 194 178 174 172 172 172 174 175 189 196 179 184 179 177 175 176 168 168 162 161 159 163 166 160 152 144 140 126 119 118 122 126 131 131 124 120 111
194 204 217 220 211 209 208 201 202 196 195 203 207 206 193 187 184 178 189 190 200 168 188 178 175 163 145 183 106 208 218 207 166 248 178 196 211 167 177 167 162 164 172 185 187 185 181 187 191 176 169 174 173 176 177 180 187 187 183 185 186 182 178 179 175 168 166 165 165 170 170 153 146 148 133 125 126 129 129 133 136 133 128 120 116
213 215 221 217 206 217 242 220 206 203 197 204 208 207 195 185 189 185 196 202 184 178 187 193 197 184 189 190 177 165 185 183 132 226 218 212 178 151 159 177 144 167 181 185 187 189 186 189 186 184 173 177 182 178 177 184 184 181 176 191 190 189 180 179 186 172 171 169 170 174 171 154 152 148 140 136 135 137 139 142 140 138 133 127 123
218 217 220 220 210 203 221 229 228 213 205 201 206 208 201 193 181 190 196 184 169 193 193 184 186 220 202 211 208 222 204 154 198 114 178 233 175 158 183 180 155 176 188 196 187 182 189 190 189 188 180 180 184 188 178 184 181 177 190 189 189 196 185 176 187 186 177 173 172 173 173 157 153 151 148 144 139 141 144 143 142 139 138 133 128
230 223 213 218 210 211 220 234 234 218 209 211 213 203 208 195 186 195 190 188 192 195 197 179 184 200 195 200 205 225 242 253 163 167 160 173 199 102 148 197 188 204 214 203 188 183 185 190 187 188 182 178 181 185 183 178 179 181 185 187 188 190 199 183 187 193 193 173 178 173 175 164 161 163 156 147 144 146 150 149 145 145 144 142 137
225 224 226 206 205 233 224 261 243 233 217 223 221 211 207 200 192 192 195 197 200 203 193 198 196 192 175 200 198 203 215 241 185 137 141 162 185 181 188 164 219 232 225 220 206 185 185 186 188 185 179 181 180 186 184 181 177 179 182 185 188 188 194 192 195 186 198 190 181 179 179 170 164 165 158 153 148 152 151 149 149 150 148 147 146
222 222 238 226 227 227 219 225 238 241 232 227 215 210 214 211 208 206 201 197 200 198 201 203 201 196 188 176 184 191 207 230 200 168 156 157 165 194 186 178 194 211 204 211 206 188 188 183 183 184 179 181 180 184 183 187 179 177 181 181 187 186 189 190 181 173 176 198 186 185 178 175 169 161 159 160 157 155 155 154 154 154 152 152 152
299 264 219 219 215 219 236 280 267 263 256 246 236 226 215 217 222 222 216 206 200 203 204 206 204 198 193 183 191 190 196 195 184 182 170 166 145 181 186 196 196 183 208 199 197 186 185 185 183 181 183 184 184 175 181 185 186 183 176 179 184 183 184 179 170 167 173 193 197 181 179 180 170 159 163 166 163 161 161 160 159 157 155 156 155
331 318 284 259 236 228 211 224 238 247 260 264 251 242 239 226 217 219 232 234 228 215 209 205 207 208 204 193 194 200 200 190 188 175 181 184 172 182 188 183 194 208 176 193 205 181 188 187 188 176 181 185 190 178 174 179 189 174 170 178 178 180 179 172 173 168 175 183 181 178 183 183 169 160 166 166 165 166 166 164 161 159 158 158 157
287 311 312 282 271 265 280 294 267 257 258 278 260 249 257 252 236 215 215 241 234 223 219 214 204 203 201 198 188 188 195 183 162 176 182 172 163 160 191 159 182 194 189 172 200 202 195 196 189 177 171 180 183 177 174 169 168 169 165 175 173 177 176 169 173 173 178 181 175 179 184 183 166 166 168 167 167 168 168 167 160 157 158 160 161
269 247 253 335 323 289 223 228 271 288 264 239 247 235 233 242 233 216 215 224 228 232 229 223 218 213 200 191 192 187 191 174 163 154 161 155 176 186 149 126 133 213 189 187 191 173 244 247 185 156 173 175 172 166 168 164 158 166 162 165 172 172 175 175 173 172 179 182 181 183 183 179 172 170 169 168 168 170 164 147 150 154 158 161 160
293 283 282 217 257 281 244 187 200 240 244 237 229 238 234 254 256 236 219 200 212 221 230 231 219 212 206 199 195 194 191 186 172 181 170 182 184 173 154 150 205 217 228 210 192 202 188 193 176 180 198 169 164 163 164 167 163 162 158 159 167 173 176 177 176 175 181 183 183 187 186 181 175 161 165 165 165 146 136 142 146 155 162 164 165
297 297 307 292 255 255 273 236 227 234 243 237 230 226 232 236 244 236 229 203 210 226 229 226 230 220 208 195 186 199 194 191 190 182 179 181 180 148 171 170 174 192 202 208 203 214 178 173 188 190 192 169 169 163 158 155 159 161 160 158 162 174 178 178 179 179 182 185 186 189 186 177 159 154 161 156 147 148 146 147 154 159 162 165 167
310 309 290 261 272 256 252 251 243 235 239 241 240 241 237 235 242 234 233 217 215 224 218 220 223 222 219 198 193 188 194 193 193 185 181 176 184 174 185 181 187 180 184 200 202 195 190 181 172 196 189 172 168 160 154 164 160 160 163 163 166 172 181 179 180 179 181 183 185 185 176 162 156 154 156 155 154 153 154 155 159 163 165 163 152
319 315 320 308 293 282 274 271 257 246 239 242 248 260 257 243 231 237 235 218 224 235 232 222 214 217 221 211 193 191 190 184 191 182 177 178 188 190 178 193 195 206 189 186 201 194 181 189 178 174 186 175 165 162 160 160 164 162 162 164 166 171 176 178 175 175 176 177 175 173 168 161 159 159 160 160 160 159 160 164 166 169 170 167 161
328 324 322 315 310 302 289 282 275 265 261 253 239 227 234 233 235 241 243 228 225 228 230 226 225 214 215 214 207 203 185 192 187 177 174 176 189 189 192 184 205 227 196 182 177 223 177 188 187 171 170 167 164 159 161 159 168 166 162 163 165 165 166 172 170 170 170 168 166 166 164 164 164 165 165 166 166 166 167 170 173 174 178 176 164
344 333 316 305 298 295 287 279 275 270 264 252 230 251 254 248 236 215 229 221 225 218 218 223 224 220 225 224 205 211 203 184 193 190 185 188 181 194 195 187 211 222 203 174 183 191 200 178 165 168 160 157 158 160 161 164 172 171 163 165 159 156 163 166 171 167 168 166 167 168 167 166 168 169 170 171 173 172 172 174 176 180 181 177 163
350 352 347 336 319 303 296 293 292 291 288 277 240 245 261 270 266 253 259 254 243 226 205 218 221 222 221 222 217 214 203 210 199 193 192 196 179 192 207 203 213 226 193 179 177 169 185 148 156 163 157 149 162 167 162 165 168 178 167 165 155 163 167 167 173 174 170 170 171 173 171 169 171 172 174 176 176 175 175 179 179 182 182 177 170
353 354 353 349 344 332 314 313 303 290 286 288 282 253 255 259 247 263 231 223 231 227 211 211 222 217 209 220 223 214 196 211 201 203 200 194 188 195 213 210 235 231 203 179 175 164 169 151 161 169 154 161 161 172 164 166 174 173 168 169 167 170 172 169 169 182 179 174 175 176 174 173 175 178 177 179 177 177 176 179 181 185 188 182 175
356 358 353 351 353 354 349 329 314 314 309 300 291 284 271 262 266 256 258 227 213 224 216 225 220 208 203 209 216 210 199 205 205 206 193 196 173 183 195 178 256 270 323 12 59 181 168 182 178 171 159 170 170 171 172 171 172 172 167 170 172 178 178 174 177 179 185 178 178 177 178 180 182 182 178 179 179 179 179 182 186 188 192 185 176
1 357 359 355 356 358 353 352 343 330 333 327 312 298 291 268 233 252 242 211 230 238 235 229 224 205 203 209 212 205 200 206 207 202 187 164 159 154 123 83 75 121 106 106 122 83 340 10 243 178 167 166 165 166 166 170 167 171 174 165 170 177 175 182 185 181 185 185 180 181 183 184 184 182 180 181 182 183 184 186 188 191 189 179 169
7 3 358 357 1 0 356 353 352 9 13 5 1 357 348 329 284 271 261 256 246 251 250 240 224 211 206 213 215 197 198 212 209 195 160 175 180 167 179 174 178 190 152 161 170 177 159 171 178 307 225 173 158 160 164 164 167 168 165 167 175 178 176 184 188 191 180 186 185 184 185 184 186 186 184 185 186 187 188 189 190 185 171 163 162
8 7 5 1 1 359 355 355 359 29 15 9 6 359 353 350 333 288 253 256 249 242 249 251 238 220 214 211 211 200 204 208 206 179 171 186 193 198 197 167 177 193 188 181 176 170 172 173 166 184 248 188 146 168 173 167 166 167 171 176 174 176 168 173 198 190 179 176 179 190 190 190 192 190 188 189 189 189 191 190 183 164 158 162 155
14 8 7 4 1 1 356 355 360 33 16 9 5 358 352 346 336 328 288 236 243 249 245 235 227 238 225 210 202 198 202 205 196 184 177 183 185 174 174 176 183 185 189 187 178 170 171 164 176 174 170 222 171 168 181 169 172 172 170 170 183 183 171 176 186 188 164 185 199 188 188 188 189 191 194 190 189 190 190 180 154 153 156 153 152
16 13 7 4 1 3 359 0 355 32 21 11 5 356 347 335 330 326 322 279 234 240 252 246 228 236 237 223 214 210 209 205 199 193 189 192 181 176 188 170 171 179 188 181 179 177 172 172 175 180 162 161 217 173 153 158 173 182 186 174 179 181 181 188 181 162 169 175 182 196 207 192 206 202 194 194 189 186 168 149 154 155 153 153 156
17 17 12 7 5 5 6 6 1 10 27 15 8 351 339 333 328 325 324 321 297 251 261 246 219 217 222 227 225 213 215 213 198 196 200 196 182 187 188 176 172 188 193 182 181 178 183 171 163 142 143 170 186 162 169 183 185 188 181 174 183 181 170 172 201 180 167 175 195 183 196 194 186 193 179 182 180 157 151 152 157 159 154 152 150
21 19 16 15 13 10 7 6 8 9 11 6 354 350 347 337 323 318 316 314 311 286 234 253 251 234 219 230 235 221 213 208 196 200 207 207 204 203 189 184 181 189 192 187 183 183 177 180 179 171 176 184 183 184 183 190 186 181 178 173 184 173 155 177 184 199 184 175 164 188 211 183 176 154 167 177 154 160 162 162 169 160 154 149 144
22 21 19 20 18 13 8 5 4 3 5 2 352 346 343 340 332 315 314 305 293 296 292 280 256 230 215 204 229 223 215 209 198 196 206 212 219 219 206 195 190 189 190 191 190 183 179 186 180 181 191 191 195 187 191 181 180 182 184 181 176 153 164 159 188 239 195 176 176 179 185 164 154 166 174 170 166 171 163 168 157 147 143 141 141
23 23 24 21 18 16 11 9 8 1 352 356 351 348 344 340 339 325 303 292 292 295 300 273 268 249 228 209 211 239 247 219 186 190 202 210 217 225 221 210 205 207 191 158 181 211 199 185 182 192 194 196 196 187 189 176 184 183 183 181 173 167 170 173 172 183 196 162 159 148 171 163 148 135 119 131 145 153 156 148 143 143 145 146 144
22 26 23 19 18 15 13 13 8 2 0 355 351 348 344 340 335 330 289 287 288 288 287 285 264 246 228 214 202 179 225 218 196 192 200 201 203 235 259 261 285 13 130 205 217 193 164 222 206 199 199 193 194 192 185 182 178 181 180 183 180 171 175 178 182 176 160 159 132 132 144 166 132 130 118 80 116 126 133 140 143 146 146 141 137
21 22 21 22 18 16 13 9 6 5 5 356 352 349 346 343 339 332 302 285 281 280 281 282 273 247 224 190 220 223 199 187 191 190 178 152 151 152 165 167 161 158 185 204 229 201 189 192 185 205 217 198 193 185 188 175 174 182 178 187 177 172 176 183 178 166 159 158 155 135 109 128 109 122 118 110 115 121 132 145 144 144 141 138 136
16 14 15 18 14 13 12 9 8 7 6 359 355 353 351 347 341 328 300 303 284 282 274 260 264 253 230 198 199 221 221 190 189 188 182 177 170 171 164 136 125 102 32 9 2 32 128 163 157 177 199 227 174 148 152 151 161 172 181 180 174 170 147 96 70 90 89 135 145 129 139 152 143 107 120 132 127 111 113 145 145 140 134 133 131
22 17 22 20 15 13 10 11 11 7 4 2 360 358 356 353 346 344 335 323 302 299 9 29 16 1 347 314 230 221 215 203 199 191 184 158 159 166 150 125 94 77 50 5 257 250 299 182 223 179 138 197 167 166 150 136 120 119 100 95 103 121 131 135 134 98 102 60 123 128 117 143 158 122 131 130 121 119 120 111 107 125 131 133 133
22 25 22 18 15 14 12 13 13 7 7 5 2 0 360 358 353 350 354 0 14 19 22 17 17 5 352 349 335 269 220 205 185 166 156 158 161 149 140 130 96 67 39 38 60 77 76 68 68 58 53 37 41 65 136 143 141 135 128 130 151 148 138 141 134 123 128 34 9 130 131 135 159 134 132 131 128 124 121 108 95 121 132 128 124
17 20 21 17 17 18 16 14 11 9 7 6 5 2 3 2 1 357 355 359 15 14 4 7 7 7 357 6 17 355 317 223 162 158 158 156 162 160 143 125 105 102 110 128 83 76 80 82 78 71 59 65 77 61 47 35 141 139 138 154 167 151 150 148 151 141 131 81 30 143 126 152 144 133 120 107 86 74 98 103 112 110 102 100 105
13 7 12 17 17 18 18 17 15 14 7 5 6 4 5 6 6 3 6 2 15 16 7 2 0 3 358 2 9 4 345 311 172 162 171 165 158 154 142 128 121 119 141 129 99 90 84 76 52 57 46 40 50 66 65 56 37 2 76 151 158 155 154 154 139 135 101 354 252 142 123 141 138 154 137 127 96 96 93 113 119 114 100 98 100